RH
92 95 95 92 90 86 83 82 80 77 70 72 73 60 63 64 66 61 58 83 80 71 67 65 59 58 69 70 74 77 80 79 77 75 73 71 68 67 68 73 76 75 74
92 95 94 94 91 83 79 79 77 78 71 73 77 67 63 66 66 63 68 61 81 75 66 58 61 61 60 68 70 75 80 78 73 73 71 68 66 66 64 68 76 75 72
86 91 96 95 91 90 86 80 81 74 71 68 74 76 68 64 67 65 62 54 56 81 74 71 71 76 64 62 65 71 78 79 73 70 69 65 65 66 63 73 69 70 73
77 92 96 90 90 90 93 85 82 83 76 76 80 76 70 64 64 64 62 53 55 74 77 84 75 77 74 64 63 67 73 77 72 69 66 64 65 72 65 66 63 65 65
81 92 93 93 91 90 93 88 88 81 81 79 79 77 76 69 69 66 62 57 73 75 68 86 84 80 76 69 62 68 71 75 73 68 64 66 66 72 69 70 69 66 67
76 89 92 91 93 91 94 94 93 85 78 78 75 83 83 73 80 74 66 58 66 65 62 68 80 69 80 77 67 66 68 71 67 70 68 67 67 67 67 65 64 71 66
68 81 91 93 92 90 90 93 93 89 90 79 83 95 94 88 87 88 84 71 75 65 65 67 79 76 59 79 79 68 68 71 68 66 68 77 75 70 68 64 63 72 73
79 82 90 95 92 92 89 90 90 94 88 79 77 87 98 96 87 88 88 75 72 68 66 67 74 82 70 71 73 79 75 68 67 64 62 58 61 78 69 70 72 67 62
76 82 83 90 94 88 90 92 92 84 89 84 70 66 97 94 95 89 88 80 75 67 62 66 66 85 79 73 70 85 88 77 68 60 63 64 60 60 65 61 62 67 61
74 78 83 86 93 89 87 88 88 85 78 90 77 60 66 71 81 98 92 84 74 70 66 69 65 78 82 81 82 88 86 75 71 61 57 66 60 58 60 63 58 62 65
73 79 82 87 93 91 88 86 86 88 76 80 80 76 73 70 67 75 95 98 87 80 77 65 65 65 80 86 82 83 84 80 67 68 64 64 67 61 64 67 66 60 65
81 79 82 88 92 92 86 84 83 83 80 75 75 70 69 76 73 72 70 93 84 78 78 69 68 68 69 83 88 89 85 81 74 72 65 64 64 65 65 59 62 61 62
85 85 84 93 92 91 85 81 84 86 79 75 74 70 65 61 62 65 68 77 84 80 76 71 69 68 67 66 77 88 89 85 78 73 61 59 70 72 66 68 66 60 61
88 83 85 86 90 94 80 80 83 86 86 75 74 70 65 64 61 61 73 75 84 78 79 72 70 68 66 67 80 94 81 89 84 80 74 71 80 79 76 72 66 71 70
83 85 85 86 88 96 91 83 86 87 84 76 72 70 65 66 61 58 64 63 66 81 81 79 77 70 68 69 77 76 75 91 89 87 85 84 85 84 81 76 77 78 79
89 84 86 85 87 86 95 84 87 84 85 83 69 68 65 65 63 64 65 62 62 67 74 66 74 74 70 68 84 67 70 90 92 90 89 89 91 87 86 84 84 84 84
94 85 85 84 88 94 94 93 87 88 86 83 70 67 66 64 65 64 65 64 67 67 66 74 71 73 72 70 72 74 74 70 69 91 92 89 91 90 88 89 89 88 87
91 85 84 85 86 92 97 96 94 88 90 89 76 67 66 63 64 63 63 66 64 62 67 72 76 78 76 71 67 74 74 71 71 85 90 91 91 91 89 88 91 91 91
95 89 86 87 88 90 94 97 90 93 89 88 82 72 66 66 65 66 64 64 64 60 61 70 80 78 77 75 74 75 74 74 73 86 91 92 92 92 92 90 89 92 94
92 91 88 89 90 88 91 93 98 94 89 87 85 72 65 67 63 66 66 65 65 67 66 68 77 83 76 77 76 78 84 79 79 74 81 80 85 92 93 93 92 92 92
92 90 90 87 84 84 85 94 94 94 96 92 90 83 68 70 72 67 63 67 68 70 72 71 74 79 81 83 85 78 76 78 77 72 74 74 75 78 79 94 88 96 94
93 92 92 90 91 81 89 92 94 95 91 90 91 87 82 86 80 81 78 74 67 71 76 72 70 72 73 74 78 77 79 84 89 80 75 74 71 75 72 74 82 90 97
92 94 94 92 96 90 89 92 94 93 92 91 88 88 87 80 78 70 83 83 81 78 71 69 71 68 68 70 76 82 83 80 73 76 78 77 89 78 72 65 86 92 92
96 95 94 94 93 95 90 91 92 92 94 89 89 89 88 84 79 74 76 78 73 74 73 67 64 63 61 67 72 74 78 76 74 80 81 82 87 83 74 72 89 91 90
95 95 94 95 94 94 95 92 90 92 91 93 92 92 91 92 91 87 80 84 79 76 79 81 76 76 78 81 76 75 84 88 87 84 90 78 88 82 81 78 76 94 92
96 89 92 93 92 94 86 97 94 90 92 90 86 89 99 93 98 94 81 80 86 79 78 79 77 84 83 82 88 72 77 85 82 87 87 86 90 85 88 84 77 77 84
Wind_Speed
9 11 9 6 8 8 9 9 10 10 11 11 9 12 10 7 8 5 5 10 11 12 12 10 5 7 10 13 11 11 13 15 17 16 15 14 14 14 13 15 16 17 17
9 8 11 10 7 9 10 10 11 10 10 10 10 11 10 9 9 8 5 7 10 9 12 12 13 13 10 10 10 10 12 14 15 14 14 13 14 14 13 12 15 16 16
12 12 12 11 10 9 11 11 10 11 10 9 12 9 10 11 9 8 8 7 7 6 9 10 11 14 13 12 10 9 11 11 15 13 13 12 13 13 13 13 14 15 15
15 11 11 11 11 11 10 11 11 10 10 10 10 8 8 9 11 10 8 7 6 4 3 3 10 14 14 13 10 11 10 11 14 13 12 12 12 11 13 13 14 13 12
16 12 10 12 14 12 12 10 10 11 10 10 10 9 8 8 9 8 10 9 6 4 3 4 6 9 8 12 11 9 11 13 14 13 12 11 12 11 13 13 14 15 14
15 13 11 16 13 13 11 12 12 11 11 11 10 9 7 8 6 8 9 8 7 7 5 4 4 6 9 9 12 10 9 9 11 11 10 11 12 12 13 13 11 14 16
17 15 11 15 16 16 17 15 12 14 10 11 10 8 4 5 6 6 7 8 7 7 5 4 3 4 6 10 9 12 11 9 11 8 7 14 13 11 13 12 10 11 16
15 15 13 12 15 13 17 18 17 9 8 13 11 10 6 2 3 4 5 7 10 7 6 6 4 5 6 4 7 8 10 13 11 9 8 7 10 10 13 14 13 11 13
15 15 15 14 16 17 15 17 14 19 11 13 16 9 7 6 7 3 5 6 8 7 8 7 7 5 5 5 6 6 7 10 13 13 11 11 9 7 8 10 11 11 12
15 16 17 15 15 16 19 17 19 18 15 15 12 8 9 9 9 5 3 4 6 8 10 7 7 6 5 4 7 9 8 9 8 12 12 12 13 12 10 9 8 11 10
14 15 17 17 16 15 20 22 21 19 15 15 12 9 7 9 10 9 6 4 1 4 5 8 8 8 6 5 5 7 10 10 11 13 13 12 13 10 13 12 10 9 11
8 14 17 17 17 15 20 21 23 23 16 16 13 11 11 11 12 9 9 6 10 7 6 7 7 7 8 5 6 9 11 11 11 14 15 12 12 12 11 11 13 12 12
8 11 15 14 15 15 21 20 22 21 18 17 18 12 10 10 11 8 9 9 7 3 6 7 7 7 8 8 9 11 11 11 11 11 15 15 12 12 12 13 12 12 12
9 13 16 16 18 14 25 24 18 19 18 17 20 14 11 8 11 11 9 10 6 7 4 5 8 8 8 9 8 13 9 11 11 11 13 15 13 12 10 11 13 12 11
11 13 16 15 18 7 23 24 17 21 20 19 18 16 13 9 11 10 10 12 8 9 11 8 5 12 10 8 8 10 10 12 11 10 9 8 13 13 14 13 11 11 10
12 13 15 15 15 13 13 25 20 21 21 16 14 18 16 11 11 10 10 10 8 7 7 10 9 7 12 9 8 12 11 9 12 12 11 8 11 14 12 12 13 13 12
11 13 15 14 11 7 8 14 20 22 22 19 18 19 18 16 11 10 9 10 9 7 5 4 7 6 14 14 10 11 10 12 10 13 12 11 10 12 12 12 12 12 13
10 13 12 12 11 6 8 14 13 20 22 19 18 18 18 13 16 14 11 12 11 10 5 6 9 9 8 15 15 14 10 9 10 12 14 12 12 13 13 12 12 12 12
10 10 10 9 6 6 7 7 17 15 20 19 19 18 19 18 17 13 13 12 10 9 7 5 6 6 8 9 12 11 12 12 8 9 14 14 14 14 14 14 13 13 12
5 5 5 2 6 5 8 11 8 12 20 20 19 19 20 20 20 18 15 15 12 11 9 8 6 6 9 7 10 11 10 8 9 8 9 10 14 15 15 15 14 14 14
9 8 10 11 11 13 11 8 9 14 11 14 17 16 17 19 22 21 14 15 15 13 10 10 8 6 8 7 13 7 10 9 10 9 9 9 10 10 11 13 12 16 16
10 11 12 11 14 11 22 19 7 9 16 17 15 17 15 14 16 20 20 21 20 18 15 11 11 11 12 11 11 10 10 9 10 9 10 11 9 10 10 10 15 15 18
12 13 12 12 12 15 28 23 11 2 13 16 18 16 13 12 17 16 18 17 18 21 21 17 17 13 13 13 14 13 14 12 12 7 13 11 8 11 10 10 15 18 19
13 11 12 14 12 15 27 27 17 9 5 14 15 16 16 15 16 18 16 16 17 17 17 13 15 16 15 14 15 16 16 14 7 5 12 11 8 10 9 10 15 20 22
12 12 11 13 15 14 29 29 17 12 10 10 4 13 15 14 15 18 17 18 17 15 13 15 14 14 16 18 17 10 10 11 10 8 9 7 6 8 9 11 10 21 23
10 9 12 13 19 13 29 29 22 9 11 8 9 11 9 16 20 25 19 17 17 16 14 13 11 8 13 16 22 17 13 13 9 8 9 9 6 6 5 7 10 10 11
Wind_Direction
293 312 208 191 188 184 166 162 160 162 160 151 140 151 150 153 149 146 139 126 122 128 129 145 144 123 104 116 108 100 112 112 106 103 100 99 95 92 93 88 84 87 84
291 282 243 192 189 192 170 169 167 166 162 158 145 150 154 152 155 150 131 129 137 129 158 159 168 165 156 124 124 114 117 121 114 109 105 104 102 100 94 81 87 86 87
280 275 277 186 180 188 175 170 164 165 159 161 149 148 157 157 154 151 142 145 147 165 180 189 158 182 159 142 146 140 117 126 119 113 109 111 105 103 106 105 96 90 86
278 281 286 214 186 182 182 171 166 160 161 159 142 153 160 165 155 154 151 156 159 165 128 134 169 135 137 125 138 149 139 124 125 118 118 123 110 112 112 109 100 92 87
295 275 253 233 187 184 175 172 169 168 164 160 152 150 160 169 167 158 162 165 154 158 132 128 93 123 127 140 139 131 134 133 135 126 127 117 121 110 119 106 114 114 111
284 277 265 269 183 181 173 175 166 168 170 161 153 144 158 162 177 163 168 166 172 161 139 155 156 146 142 132 153 156 131 120 133 116 143 142 135 125 108 106 104 115 112
274 273 264 280 184 188 177 161 158 163 167 163 142 119 93 147 174 166 154 166 160 165 147 176 196 160 164 149 155 159 161 138 134 146 119 125 149 142 135 126 125 110 101
272 265 263 258 185 176 173 169 165 168 169 174 165 140 152 142 188 173 159 169 168 163 165 185 190 175 161 160 161 167 168 165 155 153 147 125 132 114 134 123 110 105 109
283 285 277 266 246 166 168 165 175 184 178 184 176 161 152 183 145 164 183 175 170 178 172 175 197 173 163 162 173 142 169 159 168 163 164 149 169 145 121 131 122 109 112
273 278 271 269 280 174 177 174 181 192 181 181 183 197 179 143 172 153 163 167 181 182 183 171 191 186 182 179 162 148 177 144 196 171 167 177 172 166 169 140 144 134 134
275 279 270 270 258 198 172 175 186 192 185 181 186 183 168 165 169 164 165 146 166 189 212 181 186 197 194 186 170 167 172 170 206 178 174 177 171 176 165 153 156 160 133
268 273 269 253 235 204 176 178 184 187 188 188 189 187 181 171 180 164 158 145 186 188 200 206 189 207 202 189 177 170 173 184 200 188 176 181 183 172 165 169 163 166 159
280 276 284 294 244 215 181 180 181 183 189 188 190 187 186 187 172 156 156 163 179 162 195 215 194 205 208 199 187 176 192 190 192 191 194 178 182 181 176 172 166 169 171
283 284 287 285 282 220 189 184 182 187 183 190 186 182 183 173 172 163 151 157 160 183 183 179 194 203 212 206 180 174 194 202 199 207 203 188 179 170 177 178 182 179 180
276 275 273 288 289 238 198 176 177 185 184 189 183 184 183 175 177 175 162 169 161 181 202 197 172 200 206 200 177 186 198 197 202 212 222 215 182 182 181 179 185 179 185
270 273 279 277 275 229 215 173 174 183 181 185 183 183 183 176 172 172 168 167 165 154 192 199 202 183 193 203 179 197 203 194 207 210 220 211 188 191 190 187 182 183 187
294 279 269 268 276 250 209 197 181 178 184 181 190 185 185 176 174 173 173 171 158 145 155 165 200 177 196 198 200 209 204 207 211 216 211 204 200 189 186 190 191 191 194
281 272 271 270 268 296 198 181 196 180 182 178 188 182 181 175 178 177 176 178 173 169 142 159 183 189 191 203 206 204 207 211 211 205 208 204 197 195 195 198 198 198 200
302 281 265 254 261 257 260 189 182 184 185 181 183 184 180 178 179 178 182 182 177 174 171 147 163 181 196 193 202 210 208 212 213 200 204 204 202 203 199 201 203 203 203
331 342 330 311 43 350 273 187 174 185 187 188 185 187 185 185 183 180 183 185 178 175 177 169 165 166 186 185 197 200 205 205 211 209 212 213 211 207 205 206 205 202 205
13 26 37 42 43 43 17 20 200 183 192 187 188 186 193 185 187 185 182 187 182 184 182 183 184 173 182 184 203 195 212 200 217 206 210 214 217 214 218 215 219 206 208
29 34 41 35 39 32 13 13 322 205 194 193 195 188 189 176 184 180 187 188 191 187 187 189 196 201 194 193 188 196 198 199 212 197 205 223 209 214 216 217 211 205 206
32 37 36 32 30 27 22 13 358 278 197 196 191 184 181 188 185 190 191 190 197 201 193 190 197 199 195 190 184 186 198 206 217 180 198 223 193 220 214 220 206 201 206
29 31 28 30 31 30 23 20 7 26 227 191 185 184 183 182 188 189 189 199 206 206 204 197 206 196 197 190 188 192 195 203 214 191 189 219 181 219 211 222 201 206 212
23 25 30 27 27 23 28 27 20 28 32 20 217 192 189 184 179 182 192 197 205 210 207 209 206 198 187 176 182 179 188 188 210 204 200 211 185 211 209 222 215 208 214
23 21 33 29 22 20 24 23 34 14 20 14 3 8 202 190 185 189 200 200 203 206 199 200 219 207 194 185 181 191 185 194 204 204 193 208 168 173 216 215 218 210 213